Time,TemperatureF,DewpointF,PressureIn,WindDirection,WindDirectionDegrees,WindSpeedMPH,WindSpeedGustMPH,Humidity,HourlyPrecipIn,Conditions,Clouds,dailyrainin,SoftwareType,DateUTC
2013-05-28 00:13:00,65.1,63.0,29.81,South,182,2.0,5.0,91,0.00,,,0.00,weatherlink.com 1.10,2013-05-28 05:13:00,
2013-05-28 00:28:00,65.0,62.0,29.81,South,174,1.0,5.0,91,0.00,,,0.00,weatherlink.com 1.10,2013-05-28 05:28:00,
2013-05-28 00:43:00,64.9,63.0,29.80,SSE,155,3.0,6.0,92,0.00,,,0.00,weatherlink.com 1.10,2013-05-28 05:43:00,
2013-05-28 00:58:00,64.7,62.0,29.79,SSE,157,1.0,5.0,91,0.00,,,0.00,weatherlink.com 1.10,2013-05-28 05:58:00,
2013-05-28 01:13:00,64.5,62.0,29.79,SSE,150,3.0,4.0,92,0.00,,,0.00,weatherlink.com 1.10,2013-05-28 06:13:00,
2013-05-28 01:28:00,64.8,62.0,29.78,SSE,162,6.0,6.0,91,0.00,,,0.00,weatherlink.com 1.10,2013-05-28 06:28:00,
2013-05-28 01:44:00,64.9,62.0,29.77,South,183,1.0,7.0,91,0.00,,,0.00,weatherlink.com 1.10,2013-05-28 06:44:00,
2013-05-28 01:59:00,64.6,62.0,29.77,SSW,194,4.0,7.0,91,0.00,,,0.00,weatherlink.com 1.10,2013-05-28 06:59:00,
2013-05-28 02:14:00,64.7,62.0,29.77,South,184,6.0,7.0,91,0.00,,,0.00,weatherlink.com 1.10,2013-05-28 07:14:00,
2013-05-28 02:29:00,64.6,62.0,29.76,SSW,204,4.0,8.0,91,0.00,,,0.00,weatherlink.com 1.10,2013-05-28 07:29:00,
2013-05-28 02:44:00,64.7,62.0,29.75,SSW,202,4.0,8.0,91,0.00,,,0.00,weatherlink.com 1.10,2013-05-28 07:44:00,
2013-05-28 02:59:00,64.9,62.0,29.75,South,178,3.0,8.0,91,0.00,,,0.00,weatherlink.com 1.10,2013-05-28 07:59:00,
2013-05-28 03:14:00,65.0,62.0,29.75,SSW,196,7.0,8.0,90,0.00,,,0.00,weatherlink.com 1.10,2013-05-28 08:14:00,
2013-05-28 03:29:00,65.1,62.0,29.73,SW,228,4.0,8.0,90,0.00,,,0.00,weatherlink.com 1.10,2013-05-28 08:29:00,
2013-05-28 03:44:00,65.1,62.0,29.73,SSW,209,4.0,8.0,90,0.00,,,0.00,weatherlink.com 1.10,2013-05-28 08:44:00,
2013-05-28 03:59:00,65.2,62.0,29.74,SSW,209,6.0,8.0,90,0.00,,,0.00,weatherlink.com 1.10,2013-05-28 08:59:00,
2013-05-28 04:14:00,65.2,62.0,29.75,South,183,6.0,8.0,90,0.00,,,0.00,weatherlink.com 1.10,2013-05-28 09:14:00,
2013-05-28 04:29:00,65.4,63.0,29.75,SW,229,4.0,10.0,90,0.00,,,0.00,weatherlink.com 1.10,2013-05-28 09:29:00,
2013-05-28 04:44:00,65.6,63.0,29.76,SW,225,2.0,10.0,90,0.01,,,0.01,weatherlink.com 1.10,2013-05-28 09:44:00,
2013-05-28 05:00:00,65.6,63.0,29.77,SW,235,4.0,8.0,91,0.02,,,0.02,weatherlink.com 1.10,2013-05-28 10:00:00,
2013-05-28 05:15:00,65.7,63.0,29.77,SW,232,4.0,9.0,92,0.02,,,0.02,weatherlink.com 1.10,2013-05-28 10:15:00,
2013-05-28 05:30:00,66.5,64.0,29.79,West,271,4.0,16.0,92,0.04,,,0.04,weatherlink.com 1.10,2013-05-28 10:30:00,
2013-05-28 05:45:00,66.3,64.0,29.79,West,263,3.0,10.0,92,0.09,,,0.10,weatherlink.com 1.10,2013-05-28 10:45:00,
2013-05-28 06:00:00,66.1,64.0,29.76,SSW,211,5.0,9.0,93,0.10,,,0.12,weatherlink.com 1.10,2013-05-28 11:00:00,
2013-05-28 06:15:00,66.3,64.0,29.73,SSW,205,7.0,15.0,92,0.12,,,0.14,weatherlink.com 1.10,2013-05-28 11:15:00,
2013-05-28 06:30:00,66.5,63.0,29.72,South,171,4.0,16.0,89,0.11,,,0.16,weatherlink.com 1.10,2013-05-28 11:30:00,
2013-05-28 06:45:00,67.0,63.0,29.70,SSW,196,6.0,13.0,86,0.06,,,0.16,weatherlink.com 1.10,2013-05-28 11:45:00,
2013-05-28 07:00:00,66.5,63.0,29.70,SSW,212,5.0,12.0,88,0.04,,,0.16,weatherlink.com 1.10,2013-05-28 12:00:00,
2013-05-28 07:15:00,66.5,63.0,29.70,SSW,205,3.0,8.0,87,0.02,,,0.16,weatherlink.com 1.10,2013-05-28 12:15:00,
2013-05-28 07:30:00,66.3,63.0,29.73,WSW,247,2.0,8.0,88,0.00,,,0.16,weatherlink.com 1.10,2013-05-28 12:30:00,
2013-05-28 07:45:00,66.1,63.0,29.74,West,260,3.0,8.0,89,0.00,,,0.16,weatherlink.com 1.10,2013-05-28 12:45:00,
2013-05-28 08:00:00,66.4,63.0,29.76,West,271,4.0,9.0,88,0.00,,,0.16,weatherlink.com 1.10,2013-05-28 13:00:00,
2013-05-28 08:15:00,66.6,63.0,29.76,WSW,251,12.0,16.0,88,0.00,,,0.16,weatherlink.com 1.10,2013-05-28 13:15:00,
2013-05-28 08:31:00,66.5,63.0,29.76,SSW,213,6.0,16.0,89,0.01,,,0.17,weatherlink.com 1.10,2013-05-28 13:31:00,
2013-05-28 08:46:00,66.1,64.0,29.77,South,178,5.0,13.0,91,0.03,,,0.19,weatherlink.com 1.10,2013-05-28 13:46:00,
2013-05-28 09:01:00,65.9,63.0,29.74,SW,224,6.0,13.0,91,0.04,,,0.20,weatherlink.com 1.10,2013-05-28 14:01:00,
2013-05-28 09:16:00,66.4,64.0,29.73,South,172,7.0,17.0,90,0.04,,,0.20,weatherlink.com 1.10,2013-05-28 14:16:00,
2013-05-28 09:31:00,67.2,64.0,29.70,WSW,238,14.0,16.0,88,0.03,,,0.20,weatherlink.com 1.10,2013-05-28 14:31:00,
2013-05-28 09:46:00,69.1,65.0,29.70,WSW,252,3.0,14.0,86,0.01,,,0.20,weatherlink.com 1.10,2013-05-28 14:46:00,
2013-05-28 10:01:00,71.1,67.0,29.70,WSW,252,5.0,17.0,86,0.00,,,0.20,weatherlink.com 1.10,2013-05-28 15:01:00,
2013-05-28 10:16:00,71.9,68.0,29.71,SSW,201,9.0,22.0,86,0.00,,,0.20,weatherlink.com 1.10,2013-05-28 15:16:00,
2013-05-28 10:31:00,72.5,68.0,29.71,SSW,194,10.0,16.0,85,0.00,,,0.20,weatherlink.com 1.10,2013-05-28 15:31:00,
2013-05-28 10:46:00,72.8,68.0,29.71,SSW,206,9.0,23.0,84,0.00,,,0.20,weatherlink.com 1.10,2013-05-28 15:46:00,
2013-05-28 11:01:00,73.4,68.0,29.72,SW,215,8.0,20.0,84,0.00,,,0.20,weatherlink.com 1.10,2013-05-28 16:01:00,
2013-05-28 11:16:00,74.3,69.0,29.72,SW,220,6.0,19.0,83,0.00,,,0.20,weatherlink.com 1.10,2013-05-28 16:16:00,
2013-05-28 11:31:00,74.6,69.0,29.73,West,267,7.0,18.0,82,0.00,,,0.20,weatherlink.com 1.10,2013-05-28 16:31:00,
2013-05-28 11:46:00,74.7,69.0,29.74,WSW,253,7.0,24.0,82,0.00,,,0.20,weatherlink.com 1.10,2013-05-28 16:46:00,
2013-05-28 12:02:00,74.8,69.0,29.74,WNW,297,10.0,21.0,82,0.00,,,0.20,weatherlink.com 1.10,2013-05-28 17:02:00,
2013-05-28 12:17:00,74.6,69.0,29.74,SW,214,10.0,18.0,82,0.00,,,0.20,weatherlink.com 1.10,2013-05-28 17:17:00,
2013-05-28 12:32:00,75.1,70.0,29.74,West,266,9.0,19.0,83,0.00,,,0.20,weatherlink.com 1.10,2013-05-28 17:32:00,
2013-05-28 12:47:00,75.0,69.0,29.74,SW,236,4.0,17.0,82,0.00,,,0.20,weatherlink.com 1.10,2013-05-28 17:47:00,
2013-05-28 13:02:00,75.1,70.0,29.73,West,261,8.0,16.0,83,0.00,,,0.20,weatherlink.com 1.10,2013-05-28 18:02:00,
2013-05-28 13:17:00,76.0,70.0,29.73,WSW,254,9.0,14.0,82,0.00,,,0.20,weatherlink.com 1.10,2013-05-28 18:17:00,
2013-05-28 13:32:00,77.2,71.0,29.73,West,268,6.0,19.0,80,0.00,,,0.20,weatherlink.com 1.10,2013-05-28 18:32:00,
2013-05-28 13:47:00,78.2,71.0,29.73,West,264,9.0,18.0,78,0.00,,,0.20,weatherlink.com 1.10,2013-05-28 18:47:00,
2013-05-28 14:02:00,78.6,71.0,29.73,West,274,8.0,20.0,77,0.00,,,0.20,weatherlink.com 1.10,2013-05-28 19:02:00,
2013-05-28 14:17:00,78.1,70.0,29.74,WSW,240,10.0,18.0,77,0.00,,,0.20,weatherlink.com 1.10,2013-05-28 19:17:00,
2013-05-28 14:32:00,77.9,71.0,29.74,WSW,256,8.0,16.0,79,0.00,,,0.20,weatherlink.com 1.10,2013-05-28 19:32:00,
2013-05-28 14:47:00,77.1,70.0,29.75,WSW,255,6.0,15.0,79,0.00,,,0.20,weatherlink.com 1.10,2013-05-28 19:47:00,
2013-05-28 15:02:00,75.9,70.0,29.75,WSW,244,7.0,15.0,81,0.00,,,0.20,weatherlink.com 1.10,2013-05-28 20:02:00,
2013-05-28 15:18:00,75.7,70.0,29.75,WSW,252,8.0,18.0,81,0.00,,,0.20,weatherlink.com 1.10,2013-05-28 20:18:00,
2013-05-28 15:33:00,75.5,70.0,29.75,West,266,6.0,16.0,82,0.00,,,0.20,weatherlink.com 1.10,2013-05-28 20:33:00,
2013-05-28 15:48:00,75.8,70.0,29.75,West,263,7.0,11.0,82,0.00,,,0.20,weatherlink.com 1.10,2013-05-28 20:48:00,
2013-05-28 16:03:00,76.1,70.0,29.75,WSW,240,3.0,16.0,81,0.00,,,0.20,weatherlink.com 1.10,2013-05-28 21:03:00,
2013-05-28 16:18:00,76.0,70.0,29.76,SW,232,4.0,11.0,81,0.00,,,0.20,weatherlink.com 1.10,2013-05-28 21:18:00,
2013-05-28 16:34:00,75.3,70.0,29.76,WSW,239,3.0,13.0,82,0.00,,,0.20,weatherlink.com 1.10,2013-05-28 21:34:00,
2013-05-28 16:48:00,75.3,70.0,29.76,West,273,12.0,13.0,83,0.00,,,0.20,weatherlink.com 1.10,2013-05-28 21:48:00,
2013-05-28 17:03:00,75.4,70.0,29.75,WSW,242,3.0,13.0,83,0.00,,,0.20,weatherlink.com 1.10,2013-05-28 22:03:00,
2013-05-28 17:18:00,75.8,70.0,29.75,SW,219,9.0,14.0,81,0.00,,,0.20,weatherlink.com 1.10,2013-05-28 22:18:00,
2013-05-28 17:33:00,75.3,70.0,29.74,SW,217,1.0,9.0,83,0.00,,,0.20,weatherlink.com 1.10,2013-05-28 22:33:00,
2013-05-28 17:48:00,74.6,70.0,29.73,SW,217,7.0,11.0,84,0.00,,,0.20,weatherlink.com 1.10,2013-05-28 22:48:00,
2013-05-28 18:03:00,74.1,69.0,29.73,WSW,239,5.0,11.0,84,0.00,,,0.20,weatherlink.com 1.10,2013-05-28 23:03:00,
2013-05-28 18:18:00,72.7,69.0,29.72,SW,224,0.0,10.0,89,0.09,,,0.29,weatherlink.com 1.10,2013-05-28 23:18:00,
2013-05-28 18:33:00,71.0,68.0,29.77,SSW,198,2.0,10.0,89,0.12,,,0.32,weatherlink.com 1.10,2013-05-28 23:33:00,
2013-05-28 18:49:00,67.3,64.0,29.76,South,190,2.0,22.0,88,0.31,,,0.51,weatherlink.com 1.10,2013-05-28 23:49:00,
2013-05-28 19:19:00,66.3,64.0,29.79,WNW,282,0.0,11.0,93,0.35,,,0.64,weatherlink.com 1.10,2013-05-29 00:19:00,
2013-05-28 19:34:00,66.9,65.0,29.75,SW,231,15.0,15.0,93,0.35,,,0.67,weatherlink.com 1.10,2013-05-29 00:34:00,
2013-05-28 19:49:00,65.9,61.0,29.77,SSW,193,13.0,17.0,85,0.32,,,0.85,weatherlink.com 1.10,2013-05-29 00:49:00,
2013-05-28 20:04:00,66.0,61.0,29.74,SW,216,4.0,13.0,84,0.29,,,0.91,weatherlink.com 1.10,2013-05-29 01:04:00,
2013-05-28 20:19:00,66.3,61.0,29.74,SW,231,1.0,9.0,83,0.27,,,0.91,weatherlink.com 1.10,2013-05-29 01:19:00,
2013-05-28 20:34:00,66.4,61.0,29.73,SSW,202,5.0,8.0,83,0.23,,,0.91,weatherlink.com 1.10,2013-05-29 01:34:00,
2013-05-28 20:49:00,66.8,64.0,29.75,West,281,1.0,6.0,89,0.05,,,0.91,weatherlink.com 1.10,2013-05-29 01:49:00,
2013-05-28 21:04:00,67.4,65.0,29.76,West,266,3.0,6.0,92,0.00,,,0.91,weatherlink.com 1.10,2013-05-29 02:04:00,
2013-05-28 21:19:00,69.3,67.0,29.78,WSW,244,2.0,8.0,92,0.00,,,0.91,weatherlink.com 1.10,2013-05-29 02:19:00,
2013-05-28 21:34:00,70.2,67.0,29.79,SSW,212,1.0,9.0,90,0.00,,,0.91,weatherlink.com 1.10,2013-05-29 02:34:00,
2013-05-28 21:49:00,71.0,68.0,29.81,SW,227,4.0,12.0,89,0.00,,,0.91,weatherlink.com 1.10,2013-05-29 02:49:00,
2013-05-28 22:05:00,70.9,68.0,29.82,West,267,3.0,8.0,89,0.00,,,0.91,weatherlink.com 1.10,2013-05-29 03:05:00,
2013-05-28 22:20:00,70.9,67.0,29.83,West,259,6.0,10.0,88,0.00,,,0.91,weatherlink.com 1.10,2013-05-29 03:20:00,
2013-05-28 22:35:00,70.6,67.0,29.84,WSW,258,8.0,17.0,89,0.00,,,0.91,weatherlink.com 1.10,2013-05-29 03:35:00,
2013-05-28 22:50:00,68.2,63.0,29.80,NW,315,4.0,17.0,82,0.01,,,0.92,weatherlink.com 1.10,2013-05-29 03:50:00,
2013-05-28 23:05:00,66.1,61.0,29.84,WSW,248,3.0,9.0,84,0.02,,,0.93,weatherlink.com 1.10,2013-05-29 04:05:00,
2013-05-28 23:20:00,67.3,61.0,29.86,West,277,5.0,14.0,81,0.03,,,0.94,weatherlink.com 1.10,2013-05-29 04:20:00,
2013-05-28 23:35:00,66.1,61.0,29.87,SW,236,6.0,15.0,84,0.05,,,0.96,weatherlink.com 1.10,2013-05-29 04:35:00,
2013-05-28 23:50:00,64.9,61.0,29.86,West,265,4.0,9.0,87,0.05,,,0.98,weatherlink.com 1.10,2013-05-29 04:50:00,